sat.trackr.live / text

‹ back to catalog

DUCHIFAT-1

NORAD 40021 · 2014-033M

PAYLOAD ACTIVE UNKNOWN

§ Identity

Operator
Country
ISRA
Launch date
2014-06-19
Launch site
DLS
Launch vehicle
Mass (kg)
RCS (m²)
0.04

Purposes: comms, tech_demo

External: N2YO · Heavens-Above · Gunter

§ Orbital elements

Epoch: 2026-05-25T02:11:02.291136Z

Period
92.32 min
Inclination
98.0496°
Eccentricity
0.0006101
Mean motion
15.59861488 rev/d
Perigee alt
383.9 km
Apogee alt
392.2 km
Semi-major
6,766.2 km
B*
9.6786e-4
RAAN
201.0937°
Arg perigee
157.7907°
Mean anomaly
202.3613°
Rev number
65,214

§ Raw data

DUCHIFAT-11 40021U 14033M   26145.09099874  .00078339  00000+0  96786-3 0  99902 40021  98.0496 201.0937 0006101 157.7907 202.3613 15.59861488652141

JSON: /api/v1/satellites/40021 · /tle

For live sub-satellite position, see the globe view (requires WebGL).

§ Visibility from observer

Set your observer location to see the next 7 days of passes ≥ 10°. The values pass through the URL so the page stays shareable.

No JS? Fill the form by hand. The geolocation button needs JavaScript.

§ Radio — SatNOGS DB

ModeDescriptionDownlinkUplink
BPSK BPSK TLM 1k2 callsign 4X4HSL 145.980 MHz
CW CW TLM beacon callsign 4X4HSL 145.980 MHz
BPSK PE0SAT - 1k2 BPSK TLM 145.981 MHz

3 transmitters · refreshed weekly from db.satnogs.org